Weather History for Morrisville, VT

Change the Weather History Date:

Saturday, March 29, 2014

  Actual Average Record
Temperature  
Mean Temperature 38 °F 34 °F  
Max Temperature 42 °F 45 °F 57 °F (1998)
Min Temperature 34 °F 23 °F 10 °F (2001)
Degree Days  
Heating Degree Days 27 31  
Month to date heating degree days 1390 1065  
Since 1 July heating degree days 7444 7025  
Cooling Degree Days 0 0  
Month to date cooling degree days 0 0  
Year to date cooling degree days 0 0  
Moisture  
Dew Point 32 °F    
Average Humidity 78    
Maximum Humidity 96    
Minimum Humidity 60    
Precipitation  
Precipitation 0.05 in 0.06 in 0.45 in (2003)
Month to date precipitation 1.95 1.53  
Year to date precipitation 6.55 5.81  
Sea Level Pressure  
Sea Level Pressure 30.21 in    
Wind  
Wind Speed 4 mph (North)    
Max Wind Speed 13 mph    
Max Gust Speed 17 mph    
Visibility 10 miles    
Events Rain    
T = Trace of Precipitation, MM = Missing Value Source: NWS Daily Summary

Daily Weather History Graph

Daily Weather History Graph

Search for Another Location

Airport:

Trip Planner

Search our weather history database for the weather conditions in past years. The results will help you decide how hot, cold, wet, or windy it might be!

Date:

Astronomy

Mar. 29, 2014 Rise Set
Actual Time 6:36 AM EDT 7:14 PM EDT
Civil Twilight 6:07 AM EDT 7:43 PM EDT
Nautical Twilight 5:33 AM EDT 8:18 PM EDT
Astronomical Twilight 4:57 AM EDT 8:54 PM EDT
Moon 5:46 AM EDT (3/29) 6:14 PM EDT (3/29)
Length of Visible Light 13h 35m
Length of Day
12h 37m
Waning Crescent, 2% of the Moon is Illuminated
Mar 29
Waning Crescent
Mar 30
New
Apr 7
First Quarter
Apr 15
Full
Apr 22
Last Quarter

Hourly Weather History & Observations

Time (EDT) Temp. Windchill Dew Point Humidity Pressure Visibility Wind Dir Wind Speed Gust Speed Precip Events Conditions
12:04 AM 45.0 °F 40.1 °F 39.9 °F 82% 30.01 in 9.0 mi West 9.2 mph - 0.00 in Rain Light Rain
12:54 AM 42.1 °F 36.1 °F 37.0 °F 82% 30.08 in 9.0 mi NNW 10.4 mph - 0.03 in Rain Light Rain
1:37 AM 39.9 °F 35.1 °F 36.0 °F 86% 30.09 in 10.0 mi NNW 6.9 mph - 0.00 in   Overcast
1:54 AM 39.0 °F 34.0 °F 36.0 °F 89% 30.12 in 9.0 mi NNW 6.9 mph - 0.00 in   Overcast
2:54 AM 37.9 °F 32.1 °F 34.0 °F 86% 30.16 in 10.0 mi North 8.1 mph - N/A   Overcast
3:44 AM 37.0 °F 32.4 °F 34.0 °F 89% 30.16 in 10.0 mi NW 5.8 mph - N/A   Overcast
3:54 AM 37.0 °F 33.3 °F 33.1 °F 86% 30.19 in 10.0 mi NNW 4.6 mph - N/A   Overcast
4:54 AM 36.0 °F 33.3 °F 30.9 °F 82% 30.22 in 9.0 mi WNW 3.5 mph - N/A   Overcast
5:54 AM 35.1 °F 31.0 °F 32.0 °F 89% 30.24 in 10.0 mi North 4.6 mph - 0.01 in   Overcast
6:54 AM 34.0 °F 31.0 °F 32.0 °F 92% 30.28 in 10.0 mi South 3.5 mph - N/A   Overcast
7:49 AM 35.6 °F 32.8 °F 33.8 °F 93% 30.27 in 10.0 mi North 3.5 mph - N/A   Overcast
7:54 AM 35.1 °F 31.0 °F 32.0 °F 89% 30.29 in 10.0 mi Variable 4.6 mph - N/A   Overcast
8:54 AM 37.0 °F 33.3 °F 32.0 °F 82% 30.30 in 10.0 mi NNW 4.6 mph - N/A   Overcast
9:54 AM 37.0 °F 32.4 °F 30.9 °F 79% 30.32 in 10.0 mi North 5.8 mph - N/A   Overcast
10:39 AM 37.9 °F 35.5 °F 32.0 °F 79% 30.29 in 10.0 mi NNE 3.5 mph - N/A   Overcast
10:54 AM 37.9 °F - 32.0 °F 79% 30.31 in 10.0 mi Calm Calm - N/A   Overcast
11:21 AM 37.9 °F 34.4 °F 30.9 °F 76% 30.27 in 10.0 mi NNE 4.6 mph - N/A   Overcast
11:44 AM 36.0 °F 30.3 °F 30.9 °F 82% 30.27 in 10.0 mi ENE 6.9 mph - N/A   Overcast
11:54 AM 37.0 °F - 32.0 °F 82% 30.30 in 10.0 mi Calm Calm - N/A   Overcast
12:03 PM 37.0 °F 33.3 °F 32.0 °F 82% 30.27 in 10.0 mi North 4.6 mph - N/A   Overcast
12:54 PM 37.9 °F 34.4 °F 30.9 °F 76% 30.28 in 10.0 mi Variable 4.6 mph - N/A   Overcast
1:54 PM 39.0 °F 34.0 °F 28.9 °F 67% 30.26 in 10.0 mi NE 6.9 mph - N/A   Overcast
2:54 PM 39.9 °F 36.7 °F 30.0 °F 68% 30.25 in 10.0 mi NE 4.6 mph - N/A   Overcast
3:54 PM 41.0 °F 39.0 °F 30.0 °F 65% 30.22 in 10.0 mi NNE 3.5 mph - N/A   Overcast
4:54 PM 41.0 °F 37.1 °F 30.0 °F 65% 30.21 in 10.0 mi NNE 5.8 mph - N/A   Overcast
5:54 PM 41.0 °F 39.0 °F 28.0 °F 60% 30.19 in 10.0 mi ENE 3.5 mph - N/A   Overcast
6:54 PM 39.0 °F 36.8 °F 28.0 °F 65% 30.18 in 10.0 mi North 3.5 mph - N/A   Overcast
7:17 PM 37.9 °F - 28.9 °F 70% 30.15 in 10.0 mi Calm Calm - N/A   Overcast
7:54 PM 37.0 °F - 28.9 °F 73% 30.17 in 10.0 mi Calm Calm - N/A   Overcast
8:54 PM 35.1 °F - 30.0 °F 82% 30.16 in 10.0 mi Calm Calm - N/A   Overcast
9:54 PM 37.0 °F - 28.9 °F 73% 30.14 in 10.0 mi Calm Calm - N/A   Overcast
10:54 PM 37.0 °F 32.4 °F 27.0 °F 67% 30.11 in 10.0 mi Variable 5.8 mph - N/A   Overcast
11:54 PM 37.0 °F 32.4 °F 27.0 °F 67% 30.08 in 10.0 mi NE 5.8 mph - 0.00 in Rain Light Rain